TimeCDT,TemperatureF,Dew PointF,Humidity,Sea Level PressureIn,VisibilityMPH,Wind Direction,Wind SpeedMPH,Gust SpeedMPH,PrecipitationIn,Events,Conditions,WindDirDegrees,DateUTC
12:55 AM,27.7,27.5,99,29.96,10.0,West,4.6,-,N/A,,Clear,280,2011-10-21 05:55:00
1:55 AM,27.9,27.5,99,29.98,10.0,West,6.9,-,N/A,,Clear,280,2011-10-21 06:55:00
2:55 AM,28.8,28.6,99,29.99,10.0,WNW,3.5,-,N/A,,Clear,290,2011-10-21 07:55:00
3:55 AM,30.0,29.8,99,30.00,10.0,West,4.6,-,N/A,,Clear,280,2011-10-21 08:55:00
4:55 AM,28.6,28.2,99,30.02,10.0,WNW,3.5,-,N/A,,Clear,290,2011-10-21 09:55:00
5:55 AM,25.2,24.8,99,30.02,10.0,WSW,3.5,-,N/A,,Clear,250,2011-10-21 10:55:00
6:55 AM,24.1,23.7,99,30.04,6.0,Calm,Calm,-,N/A,,Clear,0,2011-10-21 11:55:00
7:00 AM,24.8,23.0,93,30.04,2.5,Calm,Calm,-,N/A,,Clear,0,2011-10-21 12:00:00
7:01 AM,24.8,23.0,93,30.04,2.0,Calm,Calm,-,N/A,,Clear,0,2011-10-21 12:01:00
7:03 AM,23.0,23.0,100,30.04,10.0,Calm,Calm,-,N/A,Fog,Shallow Fog,0,2011-10-21 12:03:00
7:55 AM,23.0,23.0,100,30.05,10.0,Calm,Calm,-,N/A,,Clear,0,2011-10-21 12:55:00
8:55 AM,33.8,33.8,100,30.07,10.0,Calm,Calm,-,N/A,,Clear,0,2011-10-21 13:55:00
9:55 AM,41.0,33.8,76,30.08,10.0,WNW,6.9,-,N/A,,Clear,300,2011-10-21 14:55:00
10:55 AM,46.4,32.0,57,30.08,10.0,WNW,8.1,-,N/A,,Partly Cloudy,290,2011-10-21 15:55:00
11:55 AM,50.0,30.2,47,30.08,10.0,Variable,6.9,-,N/A,,Partly Cloudy,0,2011-10-21 16:55:00
12:55 PM,51.8,30.2,44,30.06,10.0,WNW,9.2,16.1,N/A,,Partly Cloudy,300,2011-10-21 17:55:00
1:55 PM,53.6,30.2,41,30.04,7.0,West,6.9,-,N/A,,Partly Cloudy,280,2011-10-21 18:55:00
2:55 PM,55.4,30.2,38,30.03,10.0,West,8.1,-,N/A,,Partly Cloudy,260,2011-10-21 19:55:00
3:55 PM,56.5,31.3,38,30.03,10.0,West,6.9,-,N/A,,Partly Cloudy,260,2011-10-21 20:55:00
4:55 PM,54.5,30.2,39,30.04,4.0,West,6.9,-,N/A,,Haze,270,2011-10-21 21:55:00
5:55 PM,50.2,28.8,44,30.04,9.0,Calm,Calm,-,N/A,,Clear,0,2011-10-21 22:55:00
6:55 PM,40.1,32.4,74,30.05,10.0,Calm,Calm,-,N/A,,Clear,0,2011-10-21 23:55:00
7:55 PM,36.5,31.3,81,30.06,10.0,Calm,Calm,-,N/A,,Clear,0,2011-10-22 00:55:00
8:55 PM,31.1,30.6,98,30.04,10.0,ESE,3.5,-,N/A,,Clear,120,2011-10-22 01:55:00
9:55 PM,32.0,31.1,96,30.04,10.0,East,4.6,-,N/A,,Clear,100,2011-10-22 02:55:00
10:55 PM,31.3,30.9,99,30.03,10.0,ESE,3.5,-,N/A,,Clear,110,2011-10-22 03:55:00
11:55 PM,32.5,32.4,99,30.02,10.0,East,4.6,-,N/A,,Clear,100,2011-10-22 04:55:00